Year,Month,Day,Hour,Minute,Value (Times are PST for temperature in C)
2014,07,07,00,00,15.80
2014,07,07,00,01,15.80
2014,07,07,00,02,15.80
2014,07,07,00,03,15.80
2014,07,07,00,04,15.70
2014,07,07,00,05,15.70
2014,07,07,00,06,15.70
2014,07,07,00,07,15.70
2014,07,07,00,08,15.70
2014,07,07,00,09,15.70
2014,07,07,00,10,15.70
2014,07,07,00,11,15.70
2014,07,07,00,12,15.70
2014,07,07,00,13,15.70
2014,07,07,00,14,15.70
2014,07,07,00,15,15.70
2014,07,07,00,16,15.70
2014,07,07,00,17,15.70
2014,07,07,00,18,15.70
2014,07,07,00,19,15.70
2014,07,07,00,20,15.60
2014,07,07,00,21,15.60
2014,07,07,00,22,15.60
2014,07,07,00,23,15.60
2014,07,07,00,24,15.60
2014,07,07,00,25,15.60
2014,07,07,00,26,15.60
2014,07,07,00,27,15.60
2014,07,07,00,28,15.50
2014,07,07,00,29,15.50
2014,07,07,00,30,15.50
2014,07,07,00,31,15.50
2014,07,07,00,32,15.50
2014,07,07,00,33,15.60
2014,07,07,00,34,15.60
2014,07,07,00,35,15.60
2014,07,07,00,36,15.60
2014,07,07,00,37,15.60
2014,07,07,00,38,15.60
2014,07,07,00,39,15.60
2014,07,07,00,40,15.60
2014,07,07,00,41,15.50
2014,07,07,00,42,15.50
2014,07,07,00,43,15.50
2014,07,07,00,44,15.50
2014,07,07,00,45,15.50
2014,07,07,00,46,15.50
2014,07,07,00,47,15.50
2014,07,07,00,48,15.50
2014,07,07,00,49,15.50
2014,07,07,00,50,15.50
2014,07,07,00,51,15.40
2014,07,07,00,52,15.50
2014,07,07,00,53,15.40
2014,07,07,00,54,15.40
2014,07,07,00,55,15.40
2014,07,07,00,56,15.40
2014,07,07,00,57,15.40
2014,07,07,00,58,15.40
2014,07,07,00,59,15.40
2014,07,07,01,00,15.40
2014,07,07,01,01,15.40
2014,07,07,01,02,15.40
2014,07,07,01,03,15.40
2014,07,07,01,04,15.40
2014,07,07,01,05,15.40
2014,07,07,01,06,15.40
2014,07,07,01,07,15.40
2014,07,07,01,08,15.40
2014,07,07,01,09,15.40
2014,07,07,01,10,15.40
2014,07,07,01,11,15.40
2014,07,07,01,12,15.40
2014,07,07,01,13,15.40
2014,07,07,01,14,15.40
2014,07,07,01,15,15.40
2014,07,07,01,16,15.30
2014,07,07,01,17,15.30
2014,07,07,01,18,15.30
2014,07,07,01,19,15.30
2014,07,07,01,20,15.30
2014,07,07,01,21,15.30
2014,07,07,01,22,15.20
2014,07,07,01,23,15.20
2014,07,07,01,24,15.20
2014,07,07,01,25,15.20
2014,07,07,01,26,15.20
2014,07,07,01,27,15.20
2014,07,07,01,28,15.20
2014,07,07,01,29,15.10
2014,07,07,01,30,15.10
2014,07,07,01,31,15.10
2014,07,07,01,32,15.00
2014,07,07,01,33,15.00
2014,07,07,01,34,15.00
2014,07,07,01,35,15.00
2014,07,07,01,36,15.00
2014,07,07,01,37,15.00
2014,07,07,01,38,15.00
2014,07,07,01,39,15.00
2014,07,07,01,40,15.00
2014,07,07,01,41,15.00
2014,07,07,01,42,15.00
2014,07,07,01,43,15.00
2014,07,07,01,44,15.00
2014,07,07,01,45,15.00
2014,07,07,01,46,15.00
2014,07,07,01,47,15.00
2014,07,07,01,48,15.00
2014,07,07,01,49,15.00
2014,07,07,01,50,15.00
2014,07,07,01,51,15.00
2014,07,07,01,52,15.00
2014,07,07,01,53,15.00
2014,07,07,01,54,15.00
2014,07,07,01,55,15.00
2014,07,07,01,56,15.00
2014,07,07,01,57,15.00
2014,07,07,01,58,14.90
2014,07,07,01,59,14.90
2014,07,07,02,00,14.90
2014,07,07,02,01,14.80
2014,07,07,02,02,14.80
2014,07,07,02,03,14.80
2014,07,07,02,04,14.80
2014,07,07,02,05,14.80
2014,07,07,02,06,14.80
2014,07,07,02,07,14.80
2014,07,07,02,08,14.70
2014,07,07,02,09,14.70
2014,07,07,02,10,14.70
2014,07,07,02,11,14.70
2014,07,07,02,12,14.70
2014,07,07,02,13,14.70
2014,07,07,02,14,14.70
2014,07,07,02,15,14.70
2014,07,07,02,16,14.70
2014,07,07,02,17,14.70
2014,07,07,02,18,14.70
2014,07,07,02,19,14.70
2014,07,07,02,20,14.70
2014,07,07,02,21,14.60
2014,07,07,02,22,14.60
2014,07,07,02,23,14.60
2014,07,07,02,24,14.60
2014,07,07,02,25,14.60
2014,07,07,02,26,14.60
2014,07,07,02,27,14.60
2014,07,07,02,28,14.60
2014,07,07,02,29,14.60
2014,07,07,02,30,14.60
2014,07,07,02,31,14.60
2014,07,07,02,32,14.60
2014,07,07,02,33,14.60
2014,07,07,02,34,14.60
2014,07,07,02,35,14.60
2014,07,07,02,36,14.60
2014,07,07,02,37,14.60
2014,07,07,02,38,14.60
2014,07,07,02,39,14.60
2014,07,07,02,40,14.50
2014,07,07,02,41,14.50
2014,07,07,02,42,14.50
2014,07,07,02,43,14.50
2014,07,07,02,44,14.50
2014,07,07,02,45,14.50
2014,07,07,02,46,14.50
2014,07,07,02,47,14.50
2014,07,07,02,48,14.50
2014,07,07,02,49,14.50
2014,07,07,02,50,14.50
2014,07,07,02,51,14.50
2014,07,07,02,52,14.50
2014,07,07,02,53,14.50
2014,07,07,02,54,14.50
2014,07,07,02,55,14.50
2014,07,07,02,56,14.60
2014,07,07,02,57,14.60
2014,07,07,02,58,14.60
2014,07,07,02,59,14.60
2014,07,07,03,00,14.60
2014,07,07,03,01,14.60
2014,07,07,03,02,14.60
2014,07,07,03,03,14.60
2014,07,07,03,04,14.60
2014,07,07,03,05,14.60
2014,07,07,03,06,14.60
2014,07,07,03,07,14.60
2014,07,07,03,08,14.60
2014,07,07,03,09,14.50
2014,07,07,03,10,14.50
2014,07,07,03,11,14.50
2014,07,07,03,12,14.50
2014,07,07,03,13,14.50
2014,07,07,03,14,14.50
2014,07,07,03,15,14.50
2014,07,07,03,16,14.50
2014,07,07,03,17,14.50
2014,07,07,03,18,14.50
2014,07,07,03,19,14.50
2014,07,07,03,20,14.50
2014,07,07,03,21,14.50
2014,07,07,03,22,14.50
2014,07,07,03,23,14.50
2014,07,07,03,24,14.50
2014,07,07,03,25,14.50
2014,07,07,03,26,14.50
2014,07,07,03,27,14.50
2014,07,07,03,28,14.50
2014,07,07,03,29,14.50
2014,07,07,03,30,14.50
2014,07,07,03,31,14.50
2014,07,07,03,32,14.50
2014,07,07,03,33,14.50
2014,07,07,03,34,14.50
2014,07,07,03,35,14.50
2014,07,07,03,36,14.60
2014,07,07,03,37,14.60
2014,07,07,03,38,14.60
2014,07,07,03,39,14.60
2014,07,07,03,40,14.60
2014,07,07,03,41,14.60
2014,07,07,03,42,14.60
2014,07,07,03,43,14.60
2014,07,07,03,44,14.60
2014,07,07,03,45,14.60
2014,07,07,03,46,14.60
2014,07,07,03,47,14.60
2014,07,07,03,48,14.60
2014,07,07,03,49,14.60
2014,07,07,03,50,14.70
2014,07,07,03,51,14.70
2014,07,07,03,52,14.70
2014,07,07,03,53,14.70
2014,07,07,03,54,14.70
2014,07,07,03,55,14.70
2014,07,07,03,56,14.70
2014,07,07,03,57,14.70
2014,07,07,03,58,14.70
2014,07,07,03,59,14.70
2014,07,07,04,00,14.80
2014,07,07,04,01,14.80
2014,07,07,04,02,14.80
2014,07,07,04,03,14.80
2014,07,07,04,04,14.80
2014,07,07,04,05,14.80
2014,07,07,04,06,14.80
2014,07,07,04,07,14.80
2014,07,07,04,08,14.80
2014,07,07,04,09,14.80
2014,07,07,04,10,14.80
2014,07,07,04,11,14.90
2014,07,07,04,12,14.90
2014,07,07,04,13,14.90
2014,07,07,04,14,14.90
2014,07,07,04,15,14.90
2014,07,07,04,16,14.90
2014,07,07,04,17,14.90
2014,07,07,04,18,14.90
2014,07,07,04,19,15.00
2014,07,07,04,20,15.00
2014,07,07,04,21,15.00
2014,07,07,04,22,15.00
2014,07,07,04,23,15.00
2014,07,07,04,24,15.00
2014,07,07,04,25,15.00
2014,07,07,04,26,15.00
2014,07,07,04,27,15.00
2014,07,07,04,28,15.00
2014,07,07,04,29,15.00
2014,07,07,04,30,15.00
2014,07,07,04,31,15.00
2014,07,07,04,32,15.00
2014,07,07,04,33,15.00
2014,07,07,04,34,15.00
2014,07,07,04,35,15.00
2014,07,07,04,36,15.00
2014,07,07,04,37,15.00
2014,07,07,04,38,15.00
2014,07,07,04,39,15.00
2014,07,07,04,40,15.00
2014,07,07,04,41,15.00
2014,07,07,04,42,15.00
2014,07,07,04,43,15.00
2014,07,07,04,44,15.00
2014,07,07,04,45,15.00
2014,07,07,04,46,15.00
2014,07,07,04,47,15.00
2014,07,07,04,48,15.00
2014,07,07,04,49,15.00
2014,07,07,04,50,15.00
2014,07,07,04,51,15.00
2014,07,07,04,52,15.00
2014,07,07,04,53,15.00
2014,07,07,04,54,15.00
2014,07,07,04,55,15.00
2014,07,07,04,56,15.00
2014,07,07,04,57,15.00
2014,07,07,04,58,15.00
2014,07,07,04,59,15.00
2014,07,07,05,00,15.00
2014,07,07,05,01,15.00
2014,07,07,05,02,15.00
2014,07,07,05,03,15.00
2014,07,07,05,04,15.00
2014,07,07,05,05,15.00
2014,07,07,05,06,15.00
2014,07,07,05,07,15.00
2014,07,07,05,08,15.10
2014,07,07,05,09,15.10
2014,07,07,05,10,15.10
2014,07,07,05,11,15.10
2014,07,07,05,12,15.10
2014,07,07,05,13,15.10
2014,07,07,05,14,15.10
2014,07,07,05,15,15.10
2014,07,07,05,16,15.10
2014,07,07,05,17,15.10
2014,07,07,05,18,15.10
2014,07,07,05,19,15.10
2014,07,07,05,20,15.10
2014,07,07,05,21,15.10
2014,07,07,05,22,15.10
2014,07,07,05,23,15.10
2014,07,07,05,24,15.20
2014,07,07,05,25,15.20
2014,07,07,05,26,15.20
2014,07,07,05,27,15.20
2014,07,07,05,28,15.20
2014,07,07,05,29,15.20
2014,07,07,05,30,15.20
2014,07,07,05,31,15.20
2014,07,07,05,32,15.20
2014,07,07,05,33,15.20
2014,07,07,05,34,15.20
2014,07,07,05,35,15.20
2014,07,07,05,36,15.20
2014,07,07,05,37,15.20
2014,07,07,05,38,15.20
2014,07,07,05,39,15.20
2014,07,07,05,40,15.20
2014,07,07,05,41,15.20
2014,07,07,05,42,15.20
2014,07,07,05,43,15.20
2014,07,07,05,44,15.20
2014,07,07,05,45,15.20
2014,07,07,05,46,15.20
2014,07,07,05,47,15.20
2014,07,07,05,48,15.20
2014,07,07,05,49,15.20
2014,07,07,05,50,15.30
2014,07,07,05,51,15.30
2014,07,07,05,52,15.30
2014,07,07,05,53,15.30
2014,07,07,05,54,15.30
2014,07,07,05,55,15.30
2014,07,07,05,56,15.30
2014,07,07,05,57,15.30
2014,07,07,05,58,15.30
2014,07,07,05,59,15.30
2014,07,07,06,00,15.30
2014,07,07,06,01,15.30
2014,07,07,06,02,15.30
2014,07,07,06,03,15.30
2014,07,07,06,04,15.30
2014,07,07,06,05,15.30
2014,07,07,06,06,15.30
2014,07,07,06,07,15.30
2014,07,07,06,08,15.30
2014,07,07,06,09,15.40
2014,07,07,06,10,15.40
2014,07,07,06,11,15.40
2014,07,07,06,12,15.50
2014,07,07,06,13,15.50
2014,07,07,06,14,15.50
2014,07,07,06,15,15.60
2014,07,07,06,16,15.60
2014,07,07,06,17,15.60
2014,07,07,06,18,15.60
2014,07,07,06,19,15.60
2014,07,07,06,20,15.60
2014,07,07,06,21,15.60
2014,07,07,06,22,15.60
2014,07,07,06,23,15.70
2014,07,07,06,24,15.70
2014,07,07,06,25,15.70
2014,07,07,06,26,15.70
2014,07,07,06,27,15.70
2014,07,07,06,28,15.70
2014,07,07,06,29,15.70
2014,07,07,06,30,15.70
2014,07,07,06,31,15.70
2014,07,07,06,32,15.70
2014,07,07,06,33,15.80
2014,07,07,06,34,15.80
2014,07,07,06,35,15.80
2014,07,07,06,36,15.80
2014,07,07,06,37,15.70
2014,07,07,06,38,15.80
2014,07,07,06,39,15.80
2014,07,07,06,40,15.80
2014,07,07,06,41,15.80
2014,07,07,06,42,15.80
2014,07,07,06,43,15.90
2014,07,07,06,44,15.90
2014,07,07,06,45,15.90
2014,07,07,06,46,15.90
2014,07,07,06,47,16.00
2014,07,07,06,48,16.00
2014,07,07,06,49,16.00
2014,07,07,06,50,16.00
2014,07,07,06,51,16.00
2014,07,07,06,52,16.00
2014,07,07,06,53,16.00
2014,07,07,06,54,16.10
2014,07,07,06,55,16.10
2014,07,07,06,56,16.10
2014,07,07,06,57,16.10
2014,07,07,06,58,16.20
2014,07,07,06,59,16.20
2014,07,07,07,00,16.20
2014,07,07,07,01,16.20
2014,07,07,07,02,16.20
2014,07,07,07,03,16.20
2014,07,07,07,04,16.20
2014,07,07,07,05,16.30
2014,07,07,07,06,16.30
2014,07,07,07,07,16.30
2014,07,07,07,08,16.30
2014,07,07,07,09,16.30
2014,07,07,07,10,16.30
2014,07,07,07,11,16.30
2014,07,07,07,12,16.30
2014,07,07,07,13,16.30
2014,07,07,07,14,16.30
2014,07,07,07,15,16.30
2014,07,07,07,16,16.30
2014,07,07,07,17,16.30
2014,07,07,07,18,16.30
2014,07,07,07,19,16.30
2014,07,07,07,20,16.40
2014,07,07,07,21,16.40
2014,07,07,07,22,16.40
2014,07,07,07,23,16.40
2014,07,07,07,24,16.40
2014,07,07,07,25,16.40
2014,07,07,07,26,16.40
2014,07,07,07,27,16.50
2014,07,07,07,28,16.50
2014,07,07,07,29,16.50
2014,07,07,07,30,16.50
2014,07,07,07,31,16.60
2014,07,07,07,32,16.60
2014,07,07,07,33,16.60
2014,07,07,07,34,16.60
2014,07,07,07,35,16.70
2014,07,07,07,36,16.70
2014,07,07,07,37,16.70
2014,07,07,07,38,16.70
2014,07,07,07,39,16.80
2014,07,07,07,40,16.80
2014,07,07,07,41,16.80
2014,07,07,07,42,16.90
2014,07,07,07,43,16.90
2014,07,07,07,44,16.90
2014,07,07,07,45,16.90
2014,07,07,07,46,17.00
2014,07,07,07,47,17.00
2014,07,07,07,48,17.00
2014,07,07,07,49,17.00
2014,07,07,07,50,17.10
2014,07,07,07,51,17.10
2014,07,07,07,52,17.10
2014,07,07,07,53,17.10
2014,07,07,07,54,17.10
2014,07,07,07,55,17.10
2014,07,07,07,56,17.20
2014,07,07,07,57,17.20
2014,07,07,07,58,17.20
2014,07,07,07,59,17.20
2014,07,07,08,00,17.20
2014,07,07,08,01,17.20
2014,07,07,08,02,17.20
2014,07,07,08,03,17.20
2014,07,07,08,04,17.30
2014,07,07,08,05,17.30
2014,07,07,08,06,17.30
2014,07,07,08,07,17.30
2014,07,07,08,08,17.30
2014,07,07,08,09,17.30
2014,07,07,08,10,17.30
2014,07,07,08,11,17.30
2014,07,07,08,12,17.30
2014,07,07,08,13,17.30
2014,07,07,08,14,17.30
2014,07,07,08,15,17.30
2014,07,07,08,16,17.30
2014,07,07,08,17,17.30
2014,07,07,08,18,17.40
2014,07,07,08,19,17.40
2014,07,07,08,20,17.40
2014,07,07,08,21,17.40
2014,07,07,08,22,17.40
2014,07,07,08,23,17.40
2014,07,07,08,24,17.40
2014,07,07,08,25,17.40
2014,07,07,08,26,17.40
2014,07,07,08,27,17.50
2014,07,07,08,28,17.50
2014,07,07,08,29,17.50
2014,07,07,08,30,17.50
2014,07,07,08,31,17.50
2014,07,07,08,32,17.60
2014,07,07,08,33,17.60
2014,07,07,08,34,17.60
2014,07,07,08,35,17.60
2014,07,07,08,36,17.70
2014,07,07,08,37,17.70
2014,07,07,08,38,17.80
2014,07,07,08,39,17.80
2014,07,07,08,40,17.90
2014,07,07,08,41,17.90
2014,07,07,08,42,18.00
2014,07,07,08,43,18.00
2014,07,07,08,44,18.10
2014,07,07,08,45,18.20
2014,07,07,08,46,18.20
2014,07,07,08,47,18.30
2014,07,07,08,48,18.30
2014,07,07,08,49,18.40
2014,07,07,08,50,18.40
2014,07,07,08,51,18.50
2014,07,07,08,52,18.50
2014,07,07,08,53,18.60
2014,07,07,08,54,18.60
2014,07,07,08,55,18.60
2014,07,07,08,56,18.70
2014,07,07,08,57,18.80
2014,07,07,08,58,18.80
2014,07,07,08,59,18.90
2014,07,07,09,00,18.90
2014,07,07,09,01,19.00
2014,07,07,09,02,19.00
2014,07,07,09,03,19.00
2014,07,07,09,04,19.00
2014,07,07,09,05,18.90
2014,07,07,09,06,18.90
2014,07,07,09,07,18.90
2014,07,07,09,08,18.90
2014,07,07,09,09,18.90
2014,07,07,09,10,18.90
2014,07,07,09,11,18.90
2014,07,07,09,12,19.00
2014,07,07,09,13,19.10
2014,07,07,09,14,19.20
2014,07,07,09,15,19.30
2014,07,07,09,16,19.40
2014,07,07,09,17,19.50
2014,07,07,09,18,19.60
2014,07,07,09,19,19.70
2014,07,07,09,20,19.80
2014,07,07,09,21,19.90
2014,07,07,09,22,20.00
2014,07,07,09,23,20.00
2014,07,07,09,24,20.00
2014,07,07,09,25,20.00
2014,07,07,09,26,20.00
2014,07,07,09,27,20.00
2014,07,07,09,28,20.10
2014,07,07,09,29,20.10
2014,07,07,09,30,20.10
2014,07,07,09,31,20.10
2014,07,07,09,32,20.10
2014,07,07,09,33,20.20
2014,07,07,09,34,20.20
2014,07,07,09,35,20.20
2014,07,07,09,36,20.20
2014,07,07,09,37,20.30
2014,07,07,09,38,20.30
2014,07,07,09,39,20.40
2014,07,07,09,40,20.40
2014,07,07,09,41,20.40
2014,07,07,09,42,20.40
2014,07,07,09,43,20.40
2014,07,07,09,44,20.40
2014,07,07,09,45,20.40
2014,07,07,09,46,20.40
2014,07,07,09,47,20.40
2014,07,07,09,48,20.30
2014,07,07,09,49,20.30
2014,07,07,09,50,20.30
2014,07,07,09,51,20.30
2014,07,07,09,52,20.30
2014,07,07,09,53,20.30
2014,07,07,09,54,20.20
2014,07,07,09,55,20.20
2014,07,07,09,56,20.30
2014,07,07,09,57,20.30
2014,07,07,09,58,20.30
2014,07,07,09,59,20.30
2014,07,07,10,00,20.30
2014,07,07,10,01,20.30
2014,07,07,10,02,20.30
2014,07,07,10,03,20.30
2014,07,07,10,04,20.20
2014,07,07,10,05,20.10
2014,07,07,10,06,20.10
2014,07,07,10,07,20.10
2014,07,07,10,08,20.20
2014,07,07,10,09,20.20
2014,07,07,10,10,20.20
2014,07,07,10,11,20.30
2014,07,07,10,12,20.20
2014,07,07,10,13,20.20
2014,07,07,10,14,20.10
2014,07,07,10,15,20.00
2014,07,07,10,16,20.00
2014,07,07,10,17,20.00
2014,07,07,10,18,20.00
2014,07,07,10,19,20.10
2014,07,07,10,20,20.20
2014,07,07,10,21,20.30
2014,07,07,10,22,20.30
2014,07,07,10,23,20.40
2014,07,07,10,24,20.40
2014,07,07,10,25,20.50
2014,07,07,10,26,20.50
2014,07,07,10,27,20.60
2014,07,07,10,28,20.60
2014,07,07,10,29,20.70
2014,07,07,10,30,20.80
2014,07,07,10,31,20.90
2014,07,07,10,32,21.00
2014,07,07,10,33,21.10
2014,07,07,10,34,21.20
2014,07,07,10,35,21.30
2014,07,07,10,36,21.40
2014,07,07,10,37,21.40
2014,07,07,10,38,21.40
2014,07,07,10,39,21.40
2014,07,07,10,40,21.40
2014,07,07,10,41,21.50
2014,07,07,10,42,21.60
2014,07,07,10,43,21.60
2014,07,07,10,44,21.70
2014,07,07,10,45,21.70
2014,07,07,10,46,21.70
2014,07,07,10,47,21.60
2014,07,07,10,48,21.60
2014,07,07,10,49,21.60
2014,07,07,10,50,21.50
2014,07,07,10,51,21.40
2014,07,07,10,52,21.40
2014,07,07,10,53,21.50
2014,07,07,10,54,21.50
2014,07,07,10,55,21.50
2014,07,07,10,56,21.60
2014,07,07,10,57,21.60
2014,07,07,10,58,21.60
2014,07,07,10,59,21.60
2014,07,07,11,00,21.60
2014,07,07,11,01,21.60
2014,07,07,11,02,21.70
2014,07,07,11,03,21.80
2014,07,07,11,04,22.00
2014,07,07,11,05,22.10
2014,07,07,11,06,22.20
2014,07,07,11,07,22.20
2014,07,07,11,08,22.20
2014,07,07,11,09,22.20
2014,07,07,11,10,22.20
2014,07,07,11,11,22.20
2014,07,07,11,12,22.30
2014,07,07,11,13,22.40
2014,07,07,11,14,22.40
2014,07,07,11,15,22.40
2014,07,07,11,16,22.40
2014,07,07,11,17,22.40
2014,07,07,11,18,22.50
2014,07,07,11,19,22.50
2014,07,07,11,20,22.60
2014,07,07,11,21,22.60
2014,07,07,11,22,22.70
2014,07,07,11,23,22.80
2014,07,07,11,24,23.00
2014,07,07,11,25,22.90
2014,07,07,11,26,22.90
2014,07,07,11,27,22.80
2014,07,07,11,28,22.70
2014,07,07,11,29,22.60
2014,07,07,11,30,22.60
2014,07,07,11,31,22.50
2014,07,07,11,32,22.40
2014,07,07,11,33,22.30
2014,07,07,11,34,22.30
2014,07,07,11,35,22.30
2014,07,07,11,36,22.20
2014,07,07,11,37,22.30
2014,07,07,11,38,22.30
2014,07,07,11,39,22.30
2014,07,07,11,40,22.50
2014,07,07,11,41,22.60
2014,07,07,11,42,22.70
2014,07,07,11,43,22.80
2014,07,07,11,44,23.00
2014,07,07,11,45,23.10
2014,07,07,11,46,23.20
2014,07,07,11,47,23.30
2014,07,07,11,48,23.40
2014,07,07,11,49,23.50
2014,07,07,11,50,23.60
2014,07,07,11,51,23.70
2014,07,07,11,52,23.80
2014,07,07,11,53,23.80
2014,07,07,11,54,23.80
2014,07,07,11,55,23.70
2014,07,07,11,56,23.70
2014,07,07,11,57,23.70
2014,07,07,11,58,23.70
2014,07,07,11,59,23.70
2014,07,07,12,00,23.70
2014,07,07,12,01,23.70
2014,07,07,12,02,23.70
2014,07,07,12,03,23.70
2014,07,07,12,04,23.70
2014,07,07,12,05,23.70
2014,07,07,12,06,23.70
2014,07,07,12,07,23.70
2014,07,07,12,08,23.70
2014,07,07,12,09,23.90
2014,07,07,12,10,24.00
2014,07,07,12,11,24.10
2014,07,07,12,12,24.20
2014,07,07,12,13,24.30
2014,07,07,12,14,24.40
2014,07,07,12,15,24.60
2014,07,07,12,16,24.70
2014,07,07,12,17,24.80
2014,07,07,12,18,24.90
2014,07,07,12,19,25.10
2014,07,07,12,20,25.20
2014,07,07,12,21,25.30
2014,07,07,12,22,25.40
2014,07,07,12,23,25.40
2014,07,07,12,24,25.40
2014,07,07,12,25,25.50
2014,07,07,12,26,25.50
2014,07,07,12,27,25.60
2014,07,07,12,28,25.60
2014,07,07,12,29,25.70
2014,07,07,12,30,25.80
2014,07,07,12,31,25.90
2014,07,07,12,32,25.90
2014,07,07,12,33,25.90
2014,07,07,12,34,26.00
2014,07,07,12,35,26.00
2014,07,07,12,36,26.00
2014,07,07,12,37,26.00
2014,07,07,12,38,26.00
2014,07,07,12,39,25.90
2014,07,07,12,40,25.90
2014,07,07,12,41,25.80
2014,07,07,12,42,25.80
2014,07,07,12,43,25.90
2014,07,07,12,44,25.90
2014,07,07,12,45,25.90
2014,07,07,12,46,25.90
2014,07,07,12,47,25.90
2014,07,07,12,48,25.80
2014,07,07,12,49,25.90
2014,07,07,12,50,25.90
2014,07,07,12,51,25.90
2014,07,07,12,52,25.90
2014,07,07,12,53,25.90
2014,07,07,12,54,25.90
2014,07,07,12,55,26.10
2014,07,07,12,56,26.20
2014,07,07,12,57,26.20
2014,07,07,12,58,26.30
2014,07,07,12,59,26.20
2014,07,07,13,00,26.10
2014,07,07,13,01,25.90
2014,07,07,13,02,25.80
2014,07,07,13,03,25.70
2014,07,07,13,04,25.70
2014,07,07,13,05,25.80
2014,07,07,13,06,25.80
2014,07,07,13,07,25.90
2014,07,07,13,08,25.90
2014,07,07,13,09,26.00
2014,07,07,13,10,26.00
2014,07,07,13,11,26.20
2014,07,07,13,12,26.20
2014,07,07,13,13,26.10
2014,07,07,13,14,26.10
2014,07,07,13,15,26.10
2014,07,07,13,16,26.10
2014,07,07,13,17,26.20
2014,07,07,13,18,26.20
2014,07,07,13,19,26.20
2014,07,07,13,20,26.20
2014,07,07,13,21,26.20
2014,07,07,13,22,26.30
2014,07,07,13,23,26.30
2014,07,07,13,24,26.30
2014,07,07,13,25,26.30
2014,07,07,13,26,26.30
2014,07,07,13,27,26.30
2014,07,07,13,28,26.30
2014,07,07,13,29,26.40
2014,07,07,13,30,26.50
2014,07,07,13,31,26.60
2014,07,07,13,32,26.60
2014,07,07,13,33,26.60
2014,07,07,13,34,26.60
2014,07,07,13,35,26.60
2014,07,07,13,36,26.60
2014,07,07,13,37,26.60
2014,07,07,13,38,26.70
2014,07,07,13,39,26.70
2014,07,07,13,40,26.80
2014,07,07,13,41,26.80
2014,07,07,13,42,26.80
2014,07,07,13,43,26.80
2014,07,07,13,44,26.90
2014,07,07,13,45,26.90
2014,07,07,13,46,27.00
2014,07,07,13,47,27.00
2014,07,07,13,48,27.10
2014,07,07,13,49,27.10
2014,07,07,13,50,27.10
2014,07,07,13,51,27.10
2014,07,07,13,52,27.00
2014,07,07,13,53,26.90
2014,07,07,13,54,26.80
2014,07,07,13,55,26.80
2014,07,07,13,56,26.80
2014,07,07,13,57,26.80
2014,07,07,13,58,26.90
2014,07,07,13,59,27.00
2014,07,07,14,00,27.10
2014,07,07,14,01,27.00
2014,07,07,14,02,27.00
2014,07,07,14,03,27.00
2014,07,07,14,04,27.10
2014,07,07,14,05,27.30
2014,07,07,14,06,27.40
2014,07,07,14,07,27.40
2014,07,07,14,08,27.50
2014,07,07,14,09,27.60
2014,07,07,14,10,27.70
2014,07,07,14,11,27.70
2014,07,07,14,12,27.70
2014,07,07,14,13,27.70
2014,07,07,14,14,27.60
2014,07,07,14,15,27.50
2014,07,07,14,16,27.30
2014,07,07,14,17,27.20
2014,07,07,14,18,27.10
2014,07,07,14,19,27.10
2014,07,07,14,20,27.10
2014,07,07,14,21,27.10
2014,07,07,14,22,27.20
2014,07,07,14,23,27.30
2014,07,07,14,24,27.40
2014,07,07,14,25,27.50
2014,07,07,14,26,27.60
2014,07,07,14,27,27.50
2014,07,07,14,28,27.50
2014,07,07,14,29,27.40
2014,07,07,14,30,27.30
2014,07,07,14,31,27.20
2014,07,07,14,32,27.20
2014,07,07,14,33,27.20
2014,07,07,14,34,27.10
2014,07,07,14,35,27.10
2014,07,07,14,36,27.10
2014,07,07,14,37,27.00
2014,07,07,14,38,27.00
2014,07,07,14,39,26.90
2014,07,07,14,40,26.80
2014,07,07,14,41,26.90
2014,07,07,14,42,27.00
2014,07,07,14,43,27.20
2014,07,07,14,44,27.40
2014,07,07,14,45,27.60
2014,07,07,14,46,27.80
2014,07,07,14,47,27.90
2014,07,07,14,48,28.10
2014,07,07,14,49,28.20
2014,07,07,14,50,28.30
2014,07,07,14,51,28.40
2014,07,07,14,52,28.50
2014,07,07,14,53,28.60
2014,07,07,14,54,28.60
2014,07,07,14,55,28.70
2014,07,07,14,56,28.70
2014,07,07,14,57,28.70
2014,07,07,14,58,28.70
2014,07,07,14,59,28.60
2014,07,07,15,00,28.60
2014,07,07,15,01,28.40
2014,07,07,15,02,28.30
2014,07,07,15,03,28.20
2014,07,07,15,04,28.20
2014,07,07,15,05,28.20
2014,07,07,15,06,28.20
2014,07,07,15,07,28.30
2014,07,07,15,08,28.40
2014,07,07,15,09,28.40
2014,07,07,15,10,28.50
2014,07,07,15,11,28.60
2014,07,07,15,12,28.60
2014,07,07,15,13,28.60
2014,07,07,15,14,28.70
2014,07,07,15,15,28.70
2014,07,07,15,16,28.70
2014,07,07,15,17,28.70
2014,07,07,15,18,28.60
2014,07,07,15,19,28.50
2014,07,07,15,20,28.50
2014,07,07,15,21,28.60
2014,07,07,15,22,28.60
2014,07,07,15,23,28.50
2014,07,07,15,24,28.50
2014,07,07,15,25,28.60
2014,07,07,15,26,28.60
2014,07,07,15,27,28.60
2014,07,07,15,28,28.60
2014,07,07,15,29,28.60
2014,07,07,15,30,28.60
2014,07,07,15,31,28.70
2014,07,07,15,32,28.70
2014,07,07,15,33,28.80
2014,07,07,15,34,28.80
2014,07,07,15,35,28.90
2014,07,07,15,36,29.00
2014,07,07,15,37,29.10
2014,07,07,15,38,29.10
2014,07,07,15,39,29.20
2014,07,07,15,40,29.10
2014,07,07,15,41,29.00
2014,07,07,15,42,28.90
2014,07,07,15,43,28.90
2014,07,07,15,44,28.90
2014,07,07,15,45,28.90
2014,07,07,15,46,28.90
2014,07,07,15,47,29.00
2014,07,07,15,48,29.00
2014,07,07,15,49,29.10
2014,07,07,15,50,29.20
2014,07,07,15,51,29.30
2014,07,07,15,52,29.30
2014,07,07,15,53,29.20
2014,07,07,15,54,29.20
2014,07,07,15,55,29.10
2014,07,07,15,56,29.10
2014,07,07,15,57,29.10
2014,07,07,15,58,29.10
2014,07,07,15,59,29.00
2014,07,07,16,00,28.90
2014,07,07,16,01,28.80
2014,07,07,16,02,28.80
2014,07,07,16,03,28.70
2014,07,07,16,04,28.70
2014,07,07,16,05,28.60
2014,07,07,16,06,28.60
2014,07,07,16,07,28.60
2014,07,07,16,08,28.60
2014,07,07,16,09,28.60
2014,07,07,16,10,28.60
2014,07,07,16,11,28.60
2014,07,07,16,12,28.60
2014,07,07,16,13,28.50
2014,07,07,16,14,28.50
2014,07,07,16,15,28.60
2014,07,07,16,16,28.60
2014,07,07,16,17,28.50
2014,07,07,16,18,28.50
2014,07,07,16,19,28.40
2014,07,07,16,20,28.40
2014,07,07,16,21,28.40
2014,07,07,16,22,28.40
2014,07,07,16,23,28.40
2014,07,07,16,24,28.30
2014,07,07,16,25,28.20
2014,07,07,16,26,28.20
2014,07,07,16,27,28.10
2014,07,07,16,28,28.00
2014,07,07,16,29,27.90
2014,07,07,16,30,27.80
2014,07,07,16,31,27.70
2014,07,07,16,32,27.60
2014,07,07,16,33,27.50
2014,07,07,16,34,27.50
2014,07,07,16,35,27.50
2014,07,07,16,36,27.40
2014,07,07,16,37,27.30
2014,07,07,16,38,27.30
2014,07,07,16,39,27.30
2014,07,07,16,40,27.30
2014,07,07,16,41,27.30
2014,07,07,16,42,27.40
2014,07,07,16,43,27.40
2014,07,07,16,44,27.40
2014,07,07,16,45,27.40
2014,07,07,16,46,27.40
2014,07,07,16,47,27.50
2014,07,07,16,48,27.60
2014,07,07,16,49,27.70
2014,07,07,16,50,27.70
2014,07,07,16,51,27.70
2014,07,07,16,52,27.60
2014,07,07,16,53,27.60
2014,07,07,16,54,27.60
2014,07,07,16,55,27.60
2014,07,07,16,56,27.50
2014,07,07,16,57,27.40
2014,07,07,16,58,27.40
2014,07,07,16,59,27.40
2014,07,07,17,00,27.40
2014,07,07,17,01,27.30
2014,07,07,17,02,27.30
2014,07,07,17,03,27.30
2014,07,07,17,04,27.30
2014,07,07,17,05,27.30
2014,07,07,17,06,27.30
2014,07,07,17,07,27.30
2014,07,07,17,08,27.20
2014,07,07,17,09,27.20
2014,07,07,17,10,27.20
2014,07,07,17,11,27.20
2014,07,07,17,12,27.20
2014,07,07,17,13,27.30
2014,07,07,17,14,27.30
2014,07,07,17,15,27.30
2014,07,07,17,16,27.30
2014,07,07,17,17,27.30
2014,07,07,17,18,27.20
2014,07,07,17,19,27.20